Torna al catalogo

FREGAT DEB

LostUNKNOWN
NORAD 46407·DEBRIS·🇷🇺 Russia

Lanciato Jul 18, 2011 da Baikonur Cosmodrome

Loading…

Prossimi Passaggi (prossime 24 ore)

TLE

ObsoletoSource: Space-Track

Epoca: Aug 5, 2022, 11:44 UTC

1 46407U 11037LN  22217.48889159  .00066274  00000-0  18398+0 0  9992
2 46407  51.1672 290.3597 1419454 116.8866 258.3986 11.28973337 78420

Traccia FREGAT DEB in tempo reale con AllMySat

Download on the App Store